This is the latest recevied weather packets stored in our database for station/object N2ZVN. If no packets are shown the sender has not sent any weather packets the latest 10 day(s).
| Time | Temp. | Humidity | Pressure | Rain* | Wind** | Luminosity | Snow |
|---|---|---|---|---|---|---|---|
| 1777749136 | 8.89° C | 56% | 1015.5 hPa | 0 mm | - | 241 W/m² | - |
| 1777748833 | 8.33° C | 55% | 1015.6 hPa | 0 mm | - | 358 W/m² | - |
| 1777748531 | 8.33° C | 59% | 1015.5 hPa | 0 mm | - | 397 W/m² | - |
| 1777748230 | 8.33° C | 57% | 1015.5 hPa | 0 mm | - | 286 W/m² | - |
| 1777747927 | 8.33° C | 54% | 1015.5 hPa | 0 mm | - | 374 W/m² | - |
| 1777747623 | 8.89° C | 57% | 1015.6 hPa | 0 mm | - | 398 W/m² | - |
| 1777747324 | 8.89° C | 59% | 1015.5 hPa | 0 mm | - | 506 W/m² | - |
| 1777747021 | 8.33° C | 60% | 1015.5 hPa | 0 mm | - | 695 W/m² | - |
| 1777746717 | 8.33° C | 58% | 1015.3 hPa | 0 mm | - | 300 W/m² | - |
| 1777746412 | 8.33° C | 61% | 1015.7 hPa | 0 mm | - | 229 W/m² | - |
| 1777746108 | 7.78° C | 59% | 1015.5 hPa | 0 mm | - | 591 W/m² | - |
| 1777745806 | 7.78° C | 60% | 1015.5 hPa | 0 mm | - | 579 W/m² | - |
| 1777745504 | 7.78° C | 58% | 1015.5 hPa | 0 mm | - | 333 W/m² | - |
| 1777745201 | 7.78° C | 61% | 1015.2 hPa | 0 mm | - | 634 W/m² | - |
| 1777744898 | 8.33° C | 58% | 1015.3 hPa | 0 mm | - | 433 W/m² | - |
| 1777744597 | 8.89° C | 60% | 1015.1 hPa | 0 mm | - | 443 W/m² | - |
| 1777744293 | 8.33° C | 61% | 1015 hPa | 0 mm | - | 567 W/m² | - |
| 1777743991 | 7.78° C | 58% | 1015.2 hPa | 0 mm | - | 569 W/m² | - |
| 1777743687 | 7.78° C | 62% | 1015.3 hPa | 0 mm | - | 904 W/m² | - |
| 1777743384 | 7.78° C | 62% | 1015.2 hPa | 0 mm | - | 140 W/m² | - |
| 1777743082 | 8.33° C | 61% | 1015.3 hPa | 0 mm | - | 163 W/m² | - |
| 1777742779 | 7.78° C | 63% | 1015.2 hPa | 0 mm | - | 449 W/m² | - |
| 1777742476 | 7.78° C | 63% | 1015.2 hPa | 0 mm | - | 165 W/m² | - |
| 1777742171 | 7.78° C | 58% | 1015.1 hPa | 0 mm | - | 871 W/m² | - |
| 1777741868 | 8.33° C | 62% | 1015.3 hPa | 0 mm | - | 120 W/m² | - |
* Rain latest hour (hover to see other rain measurements)
** Current wind speed in m/s (hover to see current wind gust speed)